星链-32382 (STARLINK-32382)

导读 | 豆包AI

STARLINK-32382是美国SpaceX公司星链星座的成员卫星,于北京时间2024年9月25日发射。作为星链大规模低轨互联网星座部署的一环,它归入第二代迷你星链序列,助力实现全球覆盖的卫星互联网服务,目前星链已在百余个国家和地区落地,该卫星进一步巩固了星链在低轨通信领域的规模优势。

基本信息
目录编号:
61258
目录名称:
STARLINK-32382
国际标识:
2024-175R
轨道中心:
EARTH
卫星名称:
星链-32382
卫星全名:
星链-32382 (STARLINK-32382)
卫星状态:
在轨 (已飞行536 天)
发射日期:
2024-09-25 UTC
国别 :
美国 (US)
星等 :
--
轨道信息
数据来源 国际轨道数据
星历时间: 2026-03-14T20:42:48+0800
1天前
查看轨道信息
半长轴: 6853.395km
偏心率: 0.0001533
轨道倾角: 53.162°
近地点辐角 69.949°
升交点赤经 171.630°
平近点角 290.168°
近地点: 474.207km
远地点: 476.309km
周期: 94.106分钟
每日圈数: 15.301858
详细信息
固有亮度:
5
最大亮度:
2.5
卫星平台:
Starlink V1.0
覆盖范围:
全球
运营商:
太空探索技术公司
运营商所在国:
美国
制造商(研发单位):
太空探索技术公司
制造商所在国:
美国
使用方式:
暂无
卫星简介
Starlink 计划是 SpaceX 推出的全球卫星互联网项目,通过发射低轨道卫星,为全球尤其是偏远地区提供高速、低延迟的互联网服务。自 2019 年起,Starlink 已部署数千颗卫星,旨在缩小全球数字鸿沟,推动互联网普及。该项目还为军事、航空等行业提供通信支持,带来广泛经济效益。
2D轨道图
3D轨道图
轨道高度分析图
轨道倾角分析图
轨道综合分析图
查看轨道综合分析图